Location: *
(33.8649°S, 62.1526°E)
Time: 12:59:07
(UTC+00:00)

YAOGAN 1 - Pass Details

Date: 17 January 2021
Orbit: 618 x 620 km, 97.9° (Epoch: 02 March)

Event Time Altitude Azimuth Distance (km) Brightness Sun altitude
Rises 15:37:31 0° 173° (S) 2,929 6.4 -6.9°
Reaches altitude 10° 15:39:45 10° 176° (S) 2,015 5.6 -7.3°
Maximum altitude 15:44:04 59° 255° (WSW) 724 3.3 -8.0°
Drops below altitude 10° 15:48:20 10° 334° (NNW) 1,988 5.1 -8.8°
Sets 15:50:31 0° 338° (NNW) 2,886 5.9 -9.2°
